| time (UTC) | temp F | wind direction | speed MPH | gust MPH | rain 1hr in | rain 24hr in | rain mn in | humidity % | barometer mb |
| 20260508094307 | 35 | 0 | 0.0 | 0.0 | 5.64 | 0.00 | 0.00 | 96 | 1022.5 |
| 20260508093807 | 35 | 0 | 0.0 | 0.0 | 5.64 | 0.00 | 0.00 | 96 | 1022.7 |
| 20260508093307 | 35 | 0 | 0.0 | 0.0 | 5.64 | 0.00 | 0.00 | 96 | 1022.6 |
| 20260508092808 | 35 | 0 | 0.0 | 0.0 | 5.64 | 0.00 | 0.00 | 94 | 1022.7 |
| 20260508092313 | 35 | 0 | 0.0 | 0.0 | 5.64 | 0.00 | 0.00 | 94 | 1022.5 |
| 20260508091809 | 35 | 0 | 0.0 | 0.0 | 5.64 | 0.00 | 0.00 | 94 | 1022.3 |
| 20260508091307 | 35 | 0 | 0.0 | 0.0 | 5.64 | 0.00 | 0.00 | 94 | 1022.5 |
| 20260508090807 | 35 | 0 | 0.0 | 0.0 | 5.64 | 0.00 | 0.00 | 94 | 1022.3 |
| 20260508090307 | 35 | 0 | 0.0 | 0.0 | 5.64 | 0.00 | 0.00 | 93 | 1022.3 |
| 20260508085807 | 35 | 0 | 0.0 | 0.0 | 5.64 | 0.00 | 0.00 | 93 | 1022.3 |
| 20260508085307 | 35 | 0 | 0.0 | 0.0 | 5.64 | 0.00 | 0.00 | 93 | 1022.2 |
| 20260508084807 | 35 | 0 | 0.0 | 0.0 | 5.64 | 0.00 | 0.00 | 92 | 1022.2 |
| 20260508084307 | 35 | 0 | 0.0 | 0.0 | 5.64 | 0.00 | 0.00 | 92 | 1022.2 |
| 20260508083810 | 36 | 0 | 0.0 | 0.0 | 5.64 | 0.00 | 0.00 | 91 | 1022.6 |
| 20260508083307 | 36 | 0 | 0.0 | 0.0 | 5.64 | 0.00 | 0.00 | 90 | 1022.5 |
| 20260508082807 | 36 | 0 | 0.0 | 0.0 | 5.64 | 0.00 | 0.00 | 90 | 1022.6 |
| 20260508082307 | 36 | 0 | 0.0 | 0.0 | 5.64 | 0.00 | 0.00 | 91 | 1022.5 |
| 20260508081807 | 36 | 0 | 0.0 | 0.0 | 5.64 | 0.00 | 0.00 | 92 | 1022.7 |
| 20260508081307 | 36 | 0 | 0.0 | 0.0 | 5.64 | 0.00 | 0.00 | 92 | 1022.5 |
| 20260508080807 | 36 | 0 | 0.0 | 0.0 | 5.64 | 0.00 | 0.00 | 91 | 1022.6 |
| 20260508080307 | 36 | 0 | 0.0 | 0.0 | 5.64 | 0.00 | 0.00 | 91 | 1022.6 |
| 20260508075807 | 36 | 0 | 0.0 | 0.0 | 5.64 | 0.00 | 0.00 | 90 | 1022.6 |
| 20260508075309 | 36 | 330 | 1.0 | 5.0 | 5.64 | 0.00 | 0.00 | 94 | 1022.5 |
| 20260508074807 | 36 | 0 | 0.0 | 0.0 | 5.64 | 0.00 | 0.00 | 91 | 1022.6 |
| 20260508074309 | 36 | 330 | 0.0 | 3.0 | 5.64 | 0.00 | 0.00 | 92 | 1022.7 |
| 20260508073807 | 36 | 0 | 0.0 | 0.0 | 5.64 | 0.00 | 0.00 | 94 | 1022.6 |
| 20260508073307 | 36 | 0 | 0.0 | 0.0 | 5.64 | 0.00 | 0.00 | 85 | 1022.5 |
| 20260508072808 | 36 | 0 | 0.0 | 0.0 | 5.64 | 0.00 | 0.00 | 84 | 1022.3 |
| 20260508072308 | 36 | 0 | 0.0 | 0.0 | 5.64 | 0.00 | 0.00 | 82 | 1022.2 |
| 20260508071807 | 36 | 0 | 0.0 | 0.0 | 5.64 | 0.00 | 0.00 | 87 | 1022.3 |
| 20260508071308 | 36 | 0 | 0.0 | 0.0 | 5.64 | 0.00 | 0.00 | 84 | 1022.5 |
| 20260508070807 | 36 | 0 | 0.0 | 0.0 | 5.64 | 0.00 | 0.00 | 82 | 1022.6 |
| 20260508070307 | 36 | 0 | 0.0 | 0.0 | 5.64 | 0.00 | 0.00 | 81 | 1022.6 |
| 20260508065808 | 35 | 0 | 0.0 | 0.0 | 5.64 | 0.00 | 0.00 | 80 | 1022.6 |
| 20260508065308 | 36 | 0 | 0.0 | 0.0 | 5.64 | 0.00 | 0.00 | 79 | 1022.6 |
| 20260508064807 | 36 | 0 | 0.0 | 0.0 | 5.64 | 0.00 | 0.00 | 75 | 1022.6 |
| 20260508064307 | 36 | 0 | 0.0 | 0.0 | 5.64 | 0.00 | 0.00 | 74 | 1022.6 |
| 20260508063808 | 36 | 0 | 0.0 | 0.0 | 5.64 | 0.00 | 0.00 | 74 | 1022.6 |
| 20260508063308 | 36 | 0 | 0.0 | 0.0 | 5.64 | 0.00 | 0.00 | 74 | 1022.6 |
| 20260508062808 | 36 | 0 | 0.0 | 0.0 | 5.64 | 0.00 | 0.00 | 75 | 1022.6 |
| 20260508062307 | 37 | 0 | 0.0 | 0.0 | 5.64 | 0.00 | 0.00 | 74 | 1022.8 |
| 20260508061807 | 38 | 0 | 0.0 | 0.0 | 5.64 | 0.00 | 0.00 | 70 | 1022.9 |
| 20260508061308 | 37 | 0 | 0.0 | 0.0 | 5.64 | 0.00 | 0.00 | 68 | 1022.8 |
| 20260508060807 | 36 | 0 | 0.0 | 0.0 | 5.64 | 0.00 | 0.00 | 69 | 1022.7 |
| 20260508060307 | 37 | 0 | 0.0 | 0.0 | 5.64 | 0.00 | 0.00 | 72 | 1022.8 |
| 20260508055808 | 35 | 0 | 0.0 | 0.0 | 5.64 | 0.00 | 0.00 | 76 | 1022.9 |
| 20260508055307 | 36 | 0 | 0.0 | 0.0 | 5.64 | 0.00 | 0.00 | 76 | 1022.8 |
| 20260508054808 | 36 | 0 | 0.0 | 0.0 | 5.64 | 0.00 | 0.00 | 72 | 1022.9 |
| 20260508054308 | 36 | 0 | 0.0 | 0.0 | 5.64 | 0.00 | 0.00 | 72 | 1022.9 |
| 20260508053809 | 37 | 0 | 0.0 | 0.0 | 5.64 | 0.00 | 0.00 | 70 | 1023.1 |
| 20260508053308 | 38 | 0 | 0.0 | 0.0 | 5.64 | 0.00 | 0.00 | 68 | 1022.9 |
| 20260508052809 | 38 | 0 | 0.0 | 0.0 | 5.64 | 0.00 | 0.00 | 68 | 1023.1 |
| 20260508052311 | 38 | 0 | 0.0 | 0.0 | 5.64 | 0.00 | 0.00 | 68 | 1023.1 |
| 20260508051807 | 38 | 0 | 0.0 | 0.0 | 5.64 | 0.00 | 0.00 | 68 | 1022.9 |
| 20260508051310 | 38 | 0 | 0.0 | 0.0 | 5.64 | 0.00 | 0.00 | 68 | 1022.9 |
| 20260508050807 | 37 | 0 | 0.0 | 0.0 | 5.64 | 0.00 | 0.00 | 69 | 1023.0 |
| 20260508050309 | 37 | 0 | 0.0 | 0.0 | 5.64 | 0.00 | 0.00 | 70 | 1023.0 |
| 20260508045809 | 37 | 0 | 0.0 | 0.0 | 5.64 | 0.00 | 0.00 | 70 | 1022.9 |
| 20260508045308 | 36 | 0 | 0.0 | 0.0 | 5.64 | 0.00 | 0.00 | 71 | 1023.0 |
| 20260508044807 | 36 | 0 | 0.0 | 0.0 | 5.64 | 0.00 | 0.00 | 70 | 1023.0 |
| 20260508044307 | 37 | 0 | 0.0 | 0.0 | 5.64 | 0.00 | 0.00 | 70 | 1022.9 |
| 20260508043807 | 36 | 0 | 0.0 | 0.0 | 5.64 | 0.00 | 0.00 | 70 | 1022.9 |
| 20260508043309 | 37 | 0 | 0.0 | 0.0 | 5.64 | 0.00 | 0.00 | 69 | 1022.9 |
| 20260508042808 | 37 | 0 | 0.0 | 0.0 | 5.64 | 0.00 | 0.00 | 69 | 1022.8 |
| 20260508042308 | 36 | 0 | 0.0 | 0.0 | 5.64 | 0.00 | 0.00 | 69 | 1022.8 |
| 20260508041807 | 36 | 0 | 0.0 | 0.0 | 5.64 | 0.00 | 0.00 | 70 | 1022.7 |
| 20260508041308 | 36 | 0 | 0.0 | 0.0 | 5.64 | 0.00 | 0.00 | 70 | 1022.8 |
| 20260508040808 | 37 | 0 | 0.0 | 0.0 | 5.64 | 0.00 | 0.00 | 70 | 1022.7 |
| 20260508040308 | 37 | 0 | 0.0 | 0.0 | 5.64 | 0.00 | 0.00 | 70 | 1022.8 |
| 20260508035808 | 37 | 0 | 0.0 | 0.0 | 5.64 | 0.00 | 0.00 | 70 | 1022.7 |
| 20260508035308 | 36 | 0 | 0.0 | 0.0 | 5.64 | 0.00 | 0.00 | 70 | 1022.6 |
| 20260508034808 | 36 | 0 | 0.0 | 0.0 | 5.64 | 0.00 | 0.00 | 71 | 1022.6 |
| 20260508034308 | 37 | 0 | 0.0 | 0.0 | 5.64 | 0.00 | 0.00 | 71 | 1022.7 |
| 20260508033808 | 37 | 0 | 0.0 | 0.0 | 5.64 | 0.00 | 0.00 | 71 | 1022.6 |
| 20260508033308 | 37 | 0 | 0.0 | 0.0 | 5.64 | 0.00 | 0.00 | 71 | 1022.5 |
| 20260508032808 | 37 | 0 | 0.0 | 0.0 | 5.64 | 0.00 | 0.00 | 71 | 1022.6 |
| 20260508032308 | 37 | 0 | 0.0 | 0.0 | 5.64 | 0.00 | 0.00 | 71 | 1022.6 |
| 20260508031808 | 37 | 0 | 0.0 | 0.0 | 5.64 | 0.00 | 0.00 | 71 | 1022.5 |
| 20260508031308 | 37 | 0 | 0.0 | 0.0 | 5.64 | 0.00 | 0.00 | 70 | 1022.6 |
| 20260508030808 | 37 | 0 | 0.0 | 0.0 | 5.64 | 0.00 | 0.00 | 70 | 1022.6 |
| 20260508030311 | 37 | 0 | 0.0 | 0.0 | 5.64 | 0.00 | 0.00 | 70 | 1022.5 |
| 20260508025808 | 37 | 0 | 0.0 | 0.0 | 5.64 | 0.00 | 0.00 | 70 | 1022.5 |
| 20260508025308 | 37 | 0 | 0.0 | 0.0 | 5.64 | 0.00 | 0.00 | 70 | 1022.6 |
| 20260508024809 | 37 | 0 | 0.0 | 0.0 | 5.64 | 0.00 | 0.00 | 70 | 1022.6 |
| 20260508024308 | 37 | 0 | 0.0 | 0.0 | 5.64 | 0.00 | 0.00 | 70 | 1022.6 |
| 20260508023808 | 37 | 0 | 0.0 | 0.0 | 5.64 | 0.00 | 0.00 | 70 | 1022.6 |
| 20260508023308 | 37 | 0 | 0.0 | 0.0 | 5.64 | 0.00 | 0.00 | 70 | 1022.7 |
| 20260508022809 | 38 | 0 | 0.0 | 0.0 | 5.64 | 0.00 | 0.00 | 70 | 1022.7 |
| 20260508022308 | 38 | 0 | 0.0 | 0.0 | 5.64 | 0.00 | 0.00 | 70 | 1022.7 |
| 20260508021808 | 38 | 0 | 0.0 | 0.0 | 5.64 | 0.00 | 0.00 | 70 | 1022.7 |
| 20260508021308 | 38 | 0 | 0.0 | 0.0 | 5.64 | 0.00 | 0.00 | 70 | 1022.6 |
| 20260508020808 | 38 | 0 | 0.0 | 0.0 | 5.64 | 0.00 | 0.00 | 70 | 1022.5 |
| 20260508020308 | 38 | 0 | 0.0 | 0.0 | 5.64 | 0.00 | 0.00 | 70 | 1022.5 |
| 20260508015808 | 38 | 0 | 0.0 | 0.0 | 5.64 | 0.00 | 0.00 | 70 | 1022.6 |
| 20260508015308 | 38 | 0 | 0.0 | 0.0 | 5.64 | 0.00 | 0.00 | 70 | 1022.5 |
| 20260508014808 | 38 | 0 | 0.0 | 0.0 | 5.64 | 0.00 | 0.00 | 70 | 1022.5 |
| 20260508014309 | 39 | 0 | 0.0 | 0.0 | 5.64 | 0.00 | 0.00 | 70 | 1022.3 |
| 20260508013808 | 39 | 0 | 0.0 | 0.0 | 5.64 | 0.00 | 0.00 | 70 | 1022.2 |
| 20260508013308 | 39 | 0 | 0.0 | 0.0 | 5.64 | 0.00 | 0.00 | 69 | 1022.1 |
| 20260508012809 | 39 | 0 | 0.0 | 0.0 | 5.64 | 0.00 | 0.00 | 69 | 1022.1 |
| 20260508012308 | 39 | 0 | 0.0 | 0.0 | 5.64 | 0.00 | 0.00 | 69 | 1022.0 |
| 20260508011809 | 39 | 0 | 0.0 | 0.0 | 5.64 | 0.00 | 0.00 | 70 | 1021.9 |
| 20260508011308 | 39 | 0 | 0.0 | 0.0 | 5.64 | 0.00 | 0.00 | 70 | 1021.8 |
| 20260508010808 | 39 | 0 | 0.0 | 0.0 | 5.64 | 0.00 | 0.00 | 71 | 1021.8 |
| 20260508010308 | 39 | 0 | 0.0 | 0.0 | 5.64 | 0.00 | 0.00 | 71 | 1021.8 |
| 20260508005808 | 40 | 0 | 0.0 | 0.0 | 5.64 | 0.00 | 0.00 | 71 | 1021.7 |
| 20260508005309 | 40 | 0 | 0.0 | 0.0 | 5.64 | 0.00 | 0.00 | 72 | 1021.7 |
| 20260508004808 | 40 | 0 | 0.0 | 0.0 | 5.64 | 0.00 | 0.00 | 72 | 1021.7 |
| 20260508004309 | 40 | 0 | 0.0 | 0.0 | 5.64 | 0.00 | 0.00 | 72 | 1021.6 |
| 20260508003808 | 40 | 0 | 0.0 | 0.0 | 5.64 | 0.00 | 0.00 | 71 | 1021.6 |
| 20260508003308 | 40 | 0 | 0.0 | 0.0 | 5.64 | 0.00 | 0.00 | 71 | 1021.6 |
| 20260508002808 | 40 | 0 | 0.0 | 0.0 | 5.64 | 0.00 | 0.00 | 71 | 1021.5 |
| 20260508002308 | 41 | 0 | 0.0 | 0.0 | 5.64 | 0.00 | 0.00 | 72 | 1021.5 |
| 20260508001808 | 41 | 0 | 0.0 | 0.0 | 5.64 | 0.00 | 0.00 | 72 | 1021.5 |
| 20260508001308 | 41 | 0 | 0.0 | 0.0 | 5.64 | 0.00 | 0.00 | 71 | 1021.5 |
| 20260508000809 | 41 | 0 | 0.0 | 0.0 | 5.64 | 0.00 | 0.00 | 71 | 1021.4 |
| 20260508000309 | 41 | 0 | 0.0 | 0.0 | 5.64 | 0.00 | 0.00 | 71 | 1021.3 |
| 20260507235808 | 41 | 0 | 0.0 | 0.0 | 5.64 | 0.00 | 0.00 | 72 | 1021.3 |
| 20260507235308 | 41 | 0 | 0.0 | 0.0 | 5.64 | 0.00 | 0.00 | 72 | 1021.3 |
| 20260507234808 | 41 | 0 | 0.0 | 0.0 | 5.64 | 0.00 | 0.00 | 75 | 1021.3 |
| 20260507234308 | 41 | 0 | 0.0 | 0.0 | 5.64 | 0.00 | 0.00 | 77 | 1021.4 |
| 20260507233808 | 41 | 0 | 0.0 | 0.0 | 5.64 | 0.00 | 0.00 | 79 | 1021.3 |
| 20260507233308 | 41 | 0 | 0.0 | 0.0 | 5.64 | 0.00 | 0.00 | 80 | 1021.2 |
| 20260507232808 | 41 | 0 | 0.0 | 0.0 | 5.64 | 0.00 | 0.00 | 80 | 1021.2 |
| 20260507232308 | 41 | 0 | 0.0 | 0.0 | 5.64 | 0.00 | 0.00 | 80 | 1021.3 |
| 20260507231808 | 41 | 0 | 0.0 | 0.0 | 5.64 | 0.00 | 0.00 | 81 | 1021.2 |
| 20260507231308 | 40 | 0 | 0.0 | 0.0 | 5.64 | 0.00 | 0.00 | 82 | 1021.3 |
| 20260507230809 | 40 | 0 | 0.0 | 0.0 | 5.64 | 0.00 | 0.00 | 83 | 1021.4 |
| 20260507230308 | 40 | 0 | 0.0 | 0.0 | 5.64 | 0.00 | 0.00 | 84 | 1021.4 |
| 20260507225808 | 40 | 0 | 0.0 | 0.0 | 5.64 | 0.00 | 0.00 | 85 | 1021.5 |
| 20260507225308 | 40 | 0 | 0.0 | 0.0 | 5.64 | 0.00 | 0.00 | 84 | 1021.5 |
| 20260507224808 | 40 | 0 | 0.0 | 0.0 | 5.64 | 0.00 | 0.00 | 84 | 1021.5 |
| 20260507224308 | 40 | 0 | 0.0 | 0.0 | 5.64 | 0.00 | 0.00 | 84 | 1021.6 |
| 20260507223808 | 40 | 0 | 0.0 | 0.0 | 5.64 | 0.00 | 0.00 | 84 | 1021.7 |
| 20260507223308 | 40 | 0 | 0.0 | 0.0 | 5.64 | 0.00 | 0.00 | 84 | 1021.8 |
| 20260507222808 | 40 | 0 | 0.0 | 0.0 | 5.64 | 0.00 | 0.00 | 84 | 1021.7 |
| 20260507222310 | 40 | 0 | 0.0 | 0.0 | 5.64 | 0.00 | 0.00 | 85 | 1021.7 |
| 20260507221808 | 40 | 0 | 0.0 | 0.0 | 5.64 | 0.00 | 0.00 | 84 | 1021.7 |
| 20260507221308 | 40 | 0 | 0.0 | 0.0 | 5.64 | 0.00 | 0.00 | 81 | 1021.6 |
| 20260507220808 | 40 | 298 | 0.0 | 2.0 | 5.64 | 0.00 | 0.00 | 77 | 1021.7 |
| 20260507220308 | 41 | 0 | 0.0 | 0.0 | 5.64 | 0.00 | 0.00 | 74 | 1021.7 |
| 20260507215809 | 41 | 0 | 0.0 | 0.0 | 5.64 | 0.00 | 0.00 | 74 | 1021.7 |
| 20260507215309 | 41 | 0 | 0.0 | 0.0 | 5.64 | 0.00 | 0.00 | 73 | 1021.6 |
| 20260507214808 | 41 | 0 | 0.0 | 0.0 | 5.64 | 0.00 | 0.00 | 72 | 1021.6 |
| 20260507214308 | 41 | 298 | 1.0 | 7.0 | 5.64 | 0.00 | 0.00 | 72 | 1021.4 |
| 20260507213808 | 42 | 0 | 0.0 | 0.0 | 5.64 | 0.00 | 0.00 | 69 | 1021.3 |
| 20260507213308 | 42 | 0 | 0.0 | 0.0 | 5.64 | 0.00 | 0.00 | 69 | 1021.2 |
| 20260507212808 | 42 | 0 | 0.0 | 0.0 | 5.64 | 0.00 | 0.00 | 65 | 1021.1 |
| 20260507212309 | 43 | 0 | 0.0 | 0.0 | 5.64 | 0.00 | 0.00 | 63 | 1021.0 |
| 20260507211808 | 43 | 290 | 14.0 | 17.0 | 5.64 | 0.00 | 0.00 | 64 | 1021.0 |
| 20260507211310 | 43 | 101 | 14.0 | 19.0 | 5.64 | 0.00 | 0.00 | 63 | 1020.8 |
| 20260507210809 | 43 | 301 | 12.0 | 18.0 | 5.64 | 0.00 | 0.00 | 63 | 1021.0 |
| 20260507210310 | 43 | 0 | 0.0 | 0.0 | 5.64 | 0.00 | 0.00 | 62 | 1020.9 |
| 20260507205808 | 43 | 0 | 0.0 | 0.0 | 5.64 | 0.00 | 0.00 | 63 | 1020.9 |
| 20260507205309 | 44 | 0 | 0.0 | 0.0 | 5.64 | 0.00 | 0.00 | 62 | 1020.8 |
| 20260507204809 | 44 | 0 | 0.0 | 0.0 | 5.64 | 0.00 | 0.00 | 62 | 1020.8 |
| 20260507204309 | 44 | 0 | 0.0 | 0.0 | 5.64 | 0.00 | 0.00 | 62 | 1020.8 |
| 20260507203809 | 44 | 0 | 0.0 | 0.0 | 5.64 | 0.00 | 0.00 | 61 | 1020.8 |
| 20260507203309 | 44 | 0 | 0.0 | 0.0 | 5.64 | 0.00 | 0.00 | 60 | 1020.7 |
| 20260507202809 | 45 | 0 | 0.0 | 0.0 | 5.64 | 0.00 | 0.00 | 59 | 1020.9 |
| 20260507202308 | 45 | 0 | 0.0 | 0.0 | 5.64 | 0.00 | 0.00 | 59 | 1020.9 |
| 20260507201809 | 45 | 0 | 0.0 | 0.0 | 5.64 | 0.00 | 0.00 | 58 | 1020.9 |
| 20260507201309 | 45 | 0 | 0.0 | 0.0 | 5.64 | 0.00 | 0.00 | 58 | 1020.9 |
| 20260507200809 | 45 | 0 | 0.0 | 0.0 | 5.64 | 0.00 | 0.00 | 56 | 1021.0 |
| 20260507200308 | 45 | 0 | 0.0 | 0.0 | 5.64 | 0.00 | 0.00 | 57 | 1021.0 |
| 20260507195809 | 45 | 0 | 0.0 | 0.0 | 5.64 | 0.00 | 0.00 | 57 | 1021.0 |
| 20260507195309 | 45 | 0 | 0.0 | 0.0 | 5.64 | 0.00 | 0.00 | 57 | 1021.1 |
| 20260507194809 | 45 | 0 | 0.0 | 0.0 | 5.64 | 0.00 | 0.00 | 57 | 1021.3 |
| 20260507194309 | 45 | 76 | 18.0 | 24.0 | 5.64 | 0.00 | 0.00 | 56 | 1021.1 |
| 20260507193809 | 45 | 0 | 0.0 | 0.0 | 5.64 | 0.00 | 0.00 | 56 | 1021.2 |
| 20260507193310 | 45 | 0 | 0.0 | 0.0 | 5.64 | 0.00 | 0.00 | 56 | 1021.2 |
| 20260507192809 | 45 | 0 | 0.0 | 0.0 | 5.64 | 0.00 | 0.00 | 55 | 1021.2 |
| 20260507192309 | 46 | 0 | 0.0 | 0.0 | 5.64 | 0.00 | 0.00 | 56 | 1021.3 |
| 20260507191809 | 46 | 278 | 4.0 | 16.0 | 5.64 | 0.00 | 0.00 | 54 | 1021.3 |
| 20260507191309 | 46 | 0 | 0.0 | 0.0 | 5.64 | 0.00 | 0.00 | 60 | 1021.4 |
| 20260507190809 | 45 | 228 | 1.0 | 5.0 | 5.64 | 0.00 | 0.00 | 63 | 1021.5 |
| 20260507190309 | 45 | 0 | 0.0 | 0.0 | 5.64 | 0.00 | 0.00 | 59 | 1021.6 |
| 20260507185809 | 45 | 0 | 0.0 | 0.0 | 5.64 | 0.00 | 0.00 | 58 | 1021.6 |
| 20260507185309 | 45 | 0 | 0.0 | 0.0 | 5.64 | 0.00 | 0.00 | 59 | 1021.6 |
| 20260507184810 | 45 | 0 | 0.0 | 0.0 | 5.64 | 0.00 | 0.00 | 61 | 1021.7 |
| 20260507184309 | 44 | 0 | 0.0 | 0.0 | 5.64 | 0.00 | 0.00 | 63 | 1021.8 |
| 20260507183809 | 44 | 0 | 0.0 | 0.0 | 5.64 | 0.00 | 0.00 | 61 | 1021.9 |
| 20260507183309 | 45 | 0 | 0.0 | 0.0 | 5.64 | 0.00 | 0.00 | 58 | 1021.7 |
| 20260507182809 | 45 | 0 | 0.0 | 0.0 | 5.64 | 0.00 | 0.00 | 58 | 1021.7 |
| 20260507182309 | 44 | 0 | 0.0 | 0.0 | 5.64 | 0.00 | 0.00 | 59 | 1021.8 |
| 20260507181809 | 44 | 0 | 0.0 | 0.0 | 5.64 | 0.00 | 0.00 | 61 | 1021.9 |
| 20260507181309 | 44 | 0 | 0.0 | 0.0 | 5.64 | 0.00 | 0.00 | 62 | 1022.0 |
| 20260507180809 | 44 | 0 | 0.0 | 0.0 | 5.64 | 0.00 | 0.00 | 61 | 1022.0 |
| 20260507180310 | 44 | 0 | 0.0 | 0.0 | 5.64 | 0.00 | 0.00 | 64 | 1022.1 |
| 20260507175809 | 43 | 0 | 0.0 | 0.0 | 5.64 | 0.00 | 0.00 | 64 | 1022.1 |
| 20260507175309 | 43 | 0 | 0.0 | 0.0 | 5.64 | 0.00 | 0.00 | 65 | 1022.1 |
| 20260507174809 | 43 | 0 | 0.0 | 0.0 | 5.64 | 0.00 | 0.00 | 65 | 1022.1 |
| 20260507174310 | 43 | 0 | 0.0 | 0.0 | 5.64 | 0.00 | 0.00 | 64 | 1022.1 |
| 20260507173809 | 43 | 0 | 0.0 | 0.0 | 5.64 | 0.00 | 0.00 | 66 | 1022.2 |
| 20260507173309 | 43 | 0 | 0.0 | 0.0 | 5.64 | 0.00 | 0.00 | 66 | 1022.3 |
| 20260507172810 | 43 | 0 | 0.0 | 0.0 | 5.64 | 0.00 | 0.00 | 66 | 1022.3 |
| 20260507171310 | 43 | 0 | 0.0 | 0.0 | 5.64 | 0.00 | 0.00 | 66 | 1022.3 |
| 20260507170809 | 43 | 0 | 0.0 | 0.0 | 5.64 | 0.00 | 0.00 | 69 | 1022.6 |
| 20260507170310 | 43 | 0 | 0.0 | 0.0 | 5.64 | 0.00 | 0.00 | 67 | 1022.7 |
| 20260507165809 | 43 | 0 | 0.0 | 0.0 | 5.64 | 0.00 | 0.00 | 68 | 1022.8 |
| 20260507165309 | 43 | 0 | 0.0 | 0.0 | 5.64 | 0.00 | 0.00 | 66 | 1022.8 |
| 20260507164809 | 43 | 0 | 0.0 | 0.0 | 5.64 | 0.00 | 0.00 | 67 | 1022.9 |
| 20260507164310 | 43 | 0 | 0.0 | 0.0 | 5.64 | 0.00 | 0.00 | 66 | 1022.9 |
| 20260507163809 | 43 | 0 | 0.0 | 0.0 | 5.64 | 0.00 | 0.00 | 68 | 1023.0 |
| 20260507163310 | 43 | 0 | 0.0 | 0.0 | 5.64 | 0.00 | 0.00 | 69 | 1023.0 |
| 20260507162809 | 43 | 0 | 0.0 | 0.0 | 5.64 | 0.00 | 0.00 | 67 | 1023.1 |
| 20260507162310 | 43 | 0 | 0.0 | 0.0 | 5.64 | 0.00 | 0.00 | 69 | 1023.1 |
| 20260507161809 | 43 | 0 | 0.0 | 0.0 | 5.64 | 0.00 | 0.00 | 68 | 1023.2 |
| 20260507161309 | 43 | 0 | 0.0 | 0.0 | 5.64 | 0.00 | 0.00 | 69 | 1023.2 |
| 20260507160809 | 42 | 0 | 0.0 | 0.0 | 5.64 | 0.00 | 0.00 | 71 | 1023.3 |
| 20260507160309 | 43 | 0 | 0.0 | 0.0 | 5.64 | 0.00 | 0.00 | 70 | 1023.2 |
| 20260507155809 | 42 | 0 | 0.0 | 0.0 | 5.64 | 0.00 | 0.00 | 71 | 1023.2 |
| 20260507155310 | 42 | 0 | 0.0 | 0.0 | 5.64 | 0.00 | 0.00 | 74 | 1023.3 |
| 20260507154810 | 42 | 0 | 0.0 | 0.0 | 5.64 | 0.00 | 0.00 | 73 | 1023.3 |
| 20260507154310 | 42 | 0 | 0.0 | 0.0 | 5.64 | 0.00 | 0.00 | 72 | 1023.3 |
| 20260507153809 | 42 | 0 | 0.0 | 0.0 | 5.64 | 0.00 | 0.00 | 72 | 1023.3 |
| 20260507153309 | 42 | 0 | 0.0 | 0.0 | 5.64 | 0.00 | 0.00 | 73 | 1023.3 |
| 20260507152810 | 42 | 0 | 0.0 | 0.0 | 5.64 | 0.00 | 0.00 | 72 | 1023.2 |
| 20260507152309 | 42 | 0 | 0.0 | 0.0 | 5.64 | 0.00 | 0.00 | 76 | 1023.3 |
| 20260507151809 | 42 | 0 | 0.0 | 0.0 | 5.64 | 0.00 | 0.00 | 76 | 1023.4 |
| 20260507151310 | 42 | 283 | 5.0 | 13.0 | 5.64 | 0.00 | 0.00 | 74 | 1023.5 |
| 20260507150809 | 42 | 0 | 0.0 | 0.0 | 5.64 | 0.00 | 0.00 | 78 | 1023.5 |
| 20260507150309 | 41 | 0 | 0.0 | 0.0 | 5.64 | 0.00 | 0.00 | 77 | 1023.4 |
| 20260507145810 | 41 | 0 | 0.0 | 0.0 | 5.64 | 0.00 | 0.00 | 80 | 1023.4 |
| 20260507145309 | 41 | 0 | 0.0 | 0.0 | 5.64 | 0.00 | 0.00 | 78 | 1023.5 |
| 20260507144810 | 41 | 0 | 0.0 | 0.0 | 5.64 | 0.00 | 0.00 | 80 | 1023.5 |
| 20260507144410 | 40 | 0 | 0.0 | 0.0 | 5.64 | 0.00 | 0.00 | 79 | 1023.6 |
| 20260507144311 | 40 | 0 | 0.0 | 0.0 | 5.64 | 0.00 | 0.00 | 79 | 1023.6 |
| 20260507143810 | 40 | 0 | 0.0 | 0.0 | 5.64 | 0.00 | 0.00 | 79 | 1023.6 |
| 20260507143309 | 40 | 0 | 0.0 | 0.0 | 5.64 | 0.00 | 0.00 | 79 | 1023.8 |
| 20260507142809 | 40 | 0 | 0.0 | 0.0 | 5.64 | 0.00 | 0.00 | 80 | 1023.7 |
| 20260507142310 | 40 | 0 | 0.0 | 0.0 | 5.64 | 0.00 | 0.00 | 82 | 1023.8 |
| 20260507141809 | 40 | 0 | 0.0 | 0.0 | 5.64 | 0.00 | 0.00 | 81 | 1023.8 |
| 20260507141310 | 40 | 0 | 0.0 | 0.0 | 5.64 | 0.00 | 0.00 | 84 | 1023.9 |
| 20260507140810 | 40 | 0 | 0.0 | 0.0 | 5.64 | 0.00 | 0.00 | 85 | 1024.0 |
| 20260507140312 | 39 | 0 | 0.0 | 0.0 | 5.64 | 0.00 | 0.00 | 85 | 1024.0 |
| 20260507135811 | 39 | 0 | 0.0 | 0.0 | 5.64 | 0.00 | 0.00 | 86 | 1024.2 |
| 20260507135310 | 39 | 0 | 0.0 | 0.0 | 5.64 | 0.00 | 0.00 | 86 | 1024.1 |
| 20260507134810 | 39 | 0 | 0.0 | 0.0 | 5.64 | 0.00 | 0.00 | 87 | 1024.2 |
| 20260507134310 | 39 | 0 | 0.0 | 0.0 | 5.64 | 0.00 | 0.00 | 87 | 1024.2 |
| 20260507133810 | 39 | 0 | 0.0 | 0.0 | 5.64 | 0.00 | 0.00 | 90 | 1024.2 |
| 20260507133310 | 39 | 0 | 0.0 | 0.0 | 5.64 | 0.00 | 0.00 | 89 | 1024.0 |
| 20260507132810 | 39 | 0 | 0.0 | 0.0 | 5.64 | 0.00 | 0.00 | 89 | 1024.1 |
| 20260507132310 | 42 | 0 | 0.0 | 0.0 | 5.64 | 0.00 | 0.00 | 90 | 1024.1 |
| 20260507131810 | 42 | 0 | 0.0 | 0.0 | 5.64 | 0.00 | 0.00 | 90 | 1024.1 |
| 20260507131310 | 42 | 0 | 0.0 | 0.0 | 5.64 | 0.00 | 0.00 | 90 | 1024.2 |
| 20260507130810 | 41 | 0 | 0.0 | 0.0 | 5.64 | 0.00 | 0.00 | 90 | 1024.1 |
| 20260507130324 | 37 | 0 | 0.0 | 0.0 | 5.64 | 0.00 | 0.00 | 90 | 1024.2 |
| 20260507130311 | 37 | 0 | 0.0 | 0.0 | 5.64 | 0.00 | 0.00 | 90 | 1024.2 |
| 20260507125815 | 37 | 0 | 0.0 | 0.0 | 5.64 | 0.00 | 0.00 | 91 | 1024.3 |
| 20260507125810 | 37 | 0 | 0.0 | 0.0 | 5.64 | 0.00 | 0.00 | 91 | 1024.3 |
| 20260507125315 | 37 | 0 | 0.0 | 0.0 | 5.64 | 0.00 | 0.00 | 91 | 1024.3 |
| 20260507125310 | 37 | 0 | 0.0 | 0.0 | 5.64 | 0.00 | 0.00 | 91 | 1024.3 |
| 20260507124810 | 37 | 0 | 0.0 | 0.0 | 5.64 | 0.00 | 0.00 | 92 | 1024.3 |
| 20260507124310 | 37 | 0 | 0.0 | 0.0 | 5.64 | 0.00 | 0.00 | 92 | 1024.1 |
| 20260507123811 | 37 | 0 | 0.0 | 0.0 | 5.64 | 0.00 | 0.00 | 92 | 1024.0 |
| 20260507123310 | 40 | 0 | 0.0 | 0.0 | 5.64 | 0.00 | 0.00 | 92 | 1024.4 |
| 20260507122810 | 37 | 0 | 0.0 | 0.0 | 5.64 | 0.00 | 0.00 | 92 | 1024.2 |
| 20260507122310 | 40 | 0 | 0.0 | 0.0 | 5.64 | 0.00 | 0.00 | 93 | 1024.1 |
| 20260507121811 | 40 | 0 | 0.0 | 0.0 | 5.64 | 0.00 | 0.00 | 93 | 1024.0 |
| 20260507121310 | 40 | 0 | 0.0 | 0.0 | 5.64 | 0.00 | 0.00 | 94 | 1023.9 |
| 20260507120810 | 41 | 0 | 0.0 | 0.0 | 5.64 | 0.00 | 0.00 | 94 | 1023.9 |
| 20260507120310 | 37 | 0 | 0.0 | 0.0 | 5.64 | 0.00 | 0.00 | 95 | 1024.0 |
| 20260507115811 | 37 | 0 | 0.0 | 0.0 | 5.64 | 0.00 | 0.00 | 96 | 1023.8 |
| 20260507115310 | 36 | 0 | 0.0 | 0.0 | 5.64 | 0.00 | 0.00 | 96 | 1023.8 |
| 20260507114810 | 36 | 0 | 0.0 | 0.0 | 5.64 | 0.00 | 0.00 | 96 | 1023.8 |
| 20260507114310 | 35 | 0 | 0.0 | 0.0 | 5.64 | 0.00 | 0.00 | 97 | 1023.7 |
| 20260507113810 | 35 | 0 | 0.0 | 0.0 | 5.64 | 0.00 | 0.00 | 97 | 1024.0 |
| 20260507113310 | 35 | 0 | 0.0 | 0.0 | 5.64 | 0.00 | 0.00 | 97 | 1023.7 |
| 20260507112810 | 35 | 0 | 0.0 | 0.0 | 5.64 | 0.00 | 0.00 | 97 | 1024.0 |
| 20260507112310 | 35 | 0 | 0.0 | 0.0 | 5.64 | 0.00 | 0.00 | 97 | 1023.9 |
| 20260507111812 | 35 | 0 | 0.0 | 0.0 | 5.64 | 0.00 | 0.00 | 97 | 1024.0 |
| 20260507111314 | 36 | 0 | 0.0 | 0.0 | 5.64 | 0.00 | 0.00 | 97 | 1023.9 |
| 20260507110810 | 34 | 0 | 0.0 | 0.0 | 5.64 | 0.00 | 0.00 | 97 | 1023.8 |
| 20260507110310 | 38 | 0 | 0.0 | 0.0 | 5.64 | 0.00 | 0.00 | 97 | 1023.8 |
| 20260507105810 | 44 | 0 | 0.0 | 0.0 | 5.64 | 0.00 | 0.00 | 97 | 1023.6 |
| 20260507105310 | 44 | 0 | 0.0 | 0.0 | 5.64 | 0.00 | 0.00 | 97 | 1023.8 |
| 20260507104810 | 42 | 0 | 0.0 | 0.0 | 5.64 | 0.00 | 0.00 | 97 | 1023.7 |
| 20260507104310 | 44 | 0 | 0.0 | 0.0 | 5.64 | 0.00 | 0.00 | 97 | 1023.6 |
| 20260507103810 | -12 | 0 | 0.0 | 0.0 | 5.64 | 0.00 | 0.00 | 97 | 1023.5 |
| 20260507103310 | -13 | 0 | 0.0 | 0.0 | 5.64 | 0.00 | 0.00 | 97 | 1023.5 |
| 20260507102810 | -14 | 0 | 0.0 | 0.0 | 5.64 | 0.00 | 0.00 | 97 | 1023.5 |
| 20260507102310 | -13 | 0 | 0.0 | 0.0 | 5.64 | 0.00 | 0.00 | 97 | 1023.4 |
| 20260507101810 | -14 | 0 | 0.0 | 0.0 | 5.64 | 0.00 | 0.00 | 97 | 1023.5 |
| 20260507101310 | -12 | 0 | 0.0 | 0.0 | 5.64 | 0.00 | 0.00 | 98 | 1023.3 |
| 20260507100810 | -12 | 0 | 0.0 | 0.0 | 5.64 | 0.00 | 0.00 | 98 | 1023.3 |
| 20260507100310 | 13 | 0 | 0.0 | 0.0 | 5.64 | 0.00 | 0.00 | 99 | 1023.4 |
| 20260507095810 | -8 | 0 | 0.0 | 0.0 | 5.64 | 0.00 | 0.00 | 99 | 1023.3 |
| 20260507095310 | -8 | 0 | 0.0 | 0.0 | 5.64 | 0.00 | 0.00 | 100 | 1023.4 |
| 20260507094810 | -14 | 0 | 0.0 | 0.0 | 5.64 | 0.00 | 0.00 | 100 | 1023.4 |